User: anonymous   Login
Location: Deer Lake
(49.1830°N, 57.4330°W)
Time: 14:30:10
(UTC-02:-30)
Language:

Cosmos 1707 - Orbit

View from above orbital plane
View from above orbital plane
View from above satellite
View from above satellite

Ground track
Ground track

The orbit data is extracted from the following two-line orbital elements,

1 16326U 85113A   18110.92516013 +.00000462 +00000-0 +23960-4 0  9990
2 16326 082.5093 265.9443 0009599 326.4359 033.6263 15.13668580763613
Epoch (UTC): 20 April 2018 22:12:13
Eccentricity: 0.0009599
inclination: 82.5093°
perigee height: 518 km
apogee height: 531 km
right ascension of ascending node: 265.9443°
argument of perigee: 326.4359°
revolutions per day: 15.13668580
mean anomaly at epoch: 33.6263°
orbit number at epoch: 76361

The dashed part of the orbit path shows where the satellite is in the earth's shadow,  

DLR